Year,Month,Day,Hour,Minute,Value (Times are PST for temperature in C)
2015,02,24,00,00,2.60
2015,02,24,00,01,2.60
2015,02,24,00,02,2.60
2015,02,24,00,03,2.60
2015,02,24,00,04,2.60
2015,02,24,00,05,2.60
2015,02,24,00,06,2.60
2015,02,24,00,07,2.60
2015,02,24,00,08,2.60
2015,02,24,00,09,2.60
2015,02,24,00,10,2.50
2015,02,24,00,11,2.50
2015,02,24,00,12,2.50
2015,02,24,00,13,2.50
2015,02,24,00,14,2.50
2015,02,24,00,15,2.40
2015,02,24,00,16,2.40
2015,02,24,00,17,2.40
2015,02,24,00,18,2.40
2015,02,24,00,19,2.40
2015,02,24,00,20,2.40
2015,02,24,00,21,2.40
2015,02,24,00,22,2.40
2015,02,24,00,23,2.40
2015,02,24,00,24,2.40
2015,02,24,00,25,2.50
2015,02,24,00,26,2.50
2015,02,24,00,27,2.50
2015,02,24,00,28,2.50
2015,02,24,00,29,2.50
2015,02,24,00,30,2.60
2015,02,24,00,31,2.60
2015,02,24,00,32,2.60
2015,02,24,00,33,2.70
2015,02,24,00,34,2.70
2015,02,24,00,35,2.70
2015,02,24,00,36,2.70
2015,02,24,00,37,2.70
2015,02,24,00,38,2.70
2015,02,24,00,39,2.70
2015,02,24,00,40,2.70
2015,02,24,00,41,2.80
2015,02,24,00,42,2.80
2015,02,24,00,43,2.80
2015,02,24,00,44,2.80
2015,02,24,00,45,2.80
2015,02,24,00,46,2.80
2015,02,24,00,47,2.80
2015,02,24,00,48,2.80
2015,02,24,00,49,2.80
2015,02,24,00,50,2.80
2015,02,24,00,51,2.80
2015,02,24,00,52,2.80
2015,02,24,00,53,2.80
2015,02,24,00,54,2.80
2015,02,24,00,55,2.80
2015,02,24,00,56,2.80
2015,02,24,00,57,2.80
2015,02,24,00,58,2.80
2015,02,24,00,59,2.80
2015,02,24,01,00,2.80
2015,02,24,01,01,2.80
2015,02,24,01,02,2.80
2015,02,24,01,03,2.80
2015,02,24,01,04,2.80
2015,02,24,01,05,2.80
2015,02,24,01,06,2.80
2015,02,24,01,07,2.80
2015,02,24,01,08,2.80
2015,02,24,01,09,2.80
2015,02,24,01,10,2.80
2015,02,24,01,11,2.80
2015,02,24,01,12,2.80
2015,02,24,01,13,2.80
2015,02,24,01,14,2.80
2015,02,24,01,15,2.80
2015,02,24,01,16,2.80
2015,02,24,01,17,2.80
2015,02,24,01,18,2.80
2015,02,24,01,19,2.80
2015,02,24,01,20,2.80
2015,02,24,01,21,2.80
2015,02,24,01,22,2.80
2015,02,24,01,23,2.80
2015,02,24,01,24,2.80
2015,02,24,01,25,2.80
2015,02,24,01,26,2.90
2015,02,24,01,27,2.90
2015,02,24,01,28,2.90
2015,02,24,01,29,2.90
2015,02,24,01,30,2.90
2015,02,24,01,31,2.90
2015,02,24,01,32,2.90
2015,02,24,01,33,2.90
2015,02,24,01,34,2.90
2015,02,24,01,35,2.90
2015,02,24,01,36,2.90
2015,02,24,01,37,2.90
2015,02,24,01,38,2.90
2015,02,24,01,39,2.90
2015,02,24,01,40,2.90
2015,02,24,01,41,2.90
2015,02,24,01,42,2.90
2015,02,24,01,43,2.90
2015,02,24,01,44,2.90
2015,02,24,01,45,2.90
2015,02,24,01,46,2.90
2015,02,24,01,47,2.90
2015,02,24,01,48,2.80
2015,02,24,01,49,2.80
2015,02,24,01,50,2.80
2015,02,24,01,51,2.80
2015,02,24,01,52,2.80
2015,02,24,01,53,2.80
2015,02,24,01,54,2.80
2015,02,24,01,55,2.80
2015,02,24,01,56,2.80
2015,02,24,01,57,2.80
2015,02,24,01,58,2.80
2015,02,24,01,59,2.80
2015,02,24,02,00,2.70
2015,02,24,02,01,2.70
2015,02,24,02,02,2.70
2015,02,24,02,03,2.70
2015,02,24,02,04,2.80
2015,02,24,02,05,2.80
2015,02,24,02,06,2.80
2015,02,24,02,07,2.80
2015,02,24,02,08,2.80
2015,02,24,02,09,2.80
2015,02,24,02,10,2.80
2015,02,24,02,11,2.80
2015,02,24,02,12,2.80
2015,02,24,02,13,2.80
2015,02,24,02,14,2.80
2015,02,24,02,15,2.80
2015,02,24,02,16,2.80
2015,02,24,02,17,2.80
2015,02,24,02,18,2.80
2015,02,24,02,19,2.80
2015,02,24,02,20,2.80
2015,02,24,02,21,2.80
2015,02,24,02,22,2.80
2015,02,24,02,23,2.80
2015,02,24,02,24,2.80
2015,02,24,02,25,2.70
2015,02,24,02,26,2.70
2015,02,24,02,27,2.70
2015,02,24,02,28,2.70
2015,02,24,02,29,2.70
2015,02,24,02,30,2.60
2015,02,24,02,31,2.60
2015,02,24,02,32,2.60
2015,02,24,02,33,2.60
2015,02,24,02,34,2.60
2015,02,24,02,35,2.60
2015,02,24,02,36,2.60
2015,02,24,02,37,2.60
2015,02,24,02,38,2.60
2015,02,24,02,39,2.60
2015,02,24,02,40,2.60
2015,02,24,02,41,2.50
2015,02,24,02,42,2.50
2015,02,24,02,43,2.50
2015,02,24,02,44,2.50
2015,02,24,02,45,2.50
2015,02,24,02,46,2.50
2015,02,24,02,47,2.50
2015,02,24,02,48,2.50
2015,02,24,02,49,2.40
2015,02,24,02,50,2.40
2015,02,24,02,51,2.40
2015,02,24,02,52,2.40
2015,02,24,02,53,2.40
2015,02,24,02,54,2.40
2015,02,24,02,55,2.40
2015,02,24,02,56,2.40
2015,02,24,02,57,2.40
2015,02,24,02,58,2.40
2015,02,24,02,59,2.40
2015,02,24,03,00,2.40
2015,02,24,03,01,2.30
2015,02,24,03,02,2.30
2015,02,24,03,03,2.30
2015,02,24,03,04,2.30
2015,02,24,03,05,2.30
2015,02,24,03,06,2.30
2015,02,24,03,07,2.30
2015,02,24,03,08,2.30
2015,02,24,03,09,2.30
2015,02,24,03,10,2.30
2015,02,24,03,11,2.20
2015,02,24,03,12,2.20
2015,02,24,03,13,2.20
2015,02,24,03,14,2.20
2015,02,24,03,15,2.20
2015,02,24,03,16,2.20
2015,02,24,03,17,2.20
2015,02,24,03,18,2.20
2015,02,24,03,19,2.20
2015,02,24,03,20,2.20
2015,02,24,03,21,2.20
2015,02,24,03,22,2.20
2015,02,24,03,23,2.20
2015,02,24,03,24,2.20
2015,02,24,03,25,2.20
2015,02,24,03,26,2.20
2015,02,24,03,27,2.20
2015,02,24,03,28,2.20
2015,02,24,03,29,2.10
2015,02,24,03,30,2.10
2015,02,24,03,31,2.10
2015,02,24,03,32,2.10
2015,02,24,03,33,2.10
2015,02,24,03,34,2.10
2015,02,24,03,35,2.10
2015,02,24,03,36,2.10
2015,02,24,03,37,2.10
2015,02,24,03,38,2.10
2015,02,24,03,39,2.10
2015,02,24,03,40,2.10
2015,02,24,03,41,2.10
2015,02,24,03,42,2.00
2015,02,24,03,43,2.00
2015,02,24,03,44,2.00
2015,02,24,03,45,2.00
2015,02,24,03,46,2.00
2015,02,24,03,47,2.00
2015,02,24,03,48,2.00
2015,02,24,03,49,2.00
2015,02,24,03,50,2.00
2015,02,24,03,51,2.00
2015,02,24,03,52,2.00
2015,02,24,03,53,2.00
2015,02,24,03,54,2.00
2015,02,24,03,55,2.00
2015,02,24,03,56,2.00
2015,02,24,03,57,2.00
2015,02,24,03,58,1.90
2015,02,24,03,59,1.90
2015,02,24,04,00,1.90
2015,02,24,04,01,1.90
2015,02,24,04,02,1.90
2015,02,24,04,03,1.80
2015,02,24,04,04,1.80
2015,02,24,04,05,1.80
2015,02,24,04,06,1.70
2015,02,24,04,07,1.70
2015,02,24,04,08,1.70
2015,02,24,04,09,1.70
2015,02,24,04,10,1.60
2015,02,24,04,11,1.60
2015,02,24,04,12,1.70
2015,02,24,04,13,1.70
2015,02,24,04,14,1.70
2015,02,24,04,15,1.70
2015,02,24,04,16,1.70
2015,02,24,04,17,1.60
2015,02,24,04,18,1.70
2015,02,24,04,19,1.70
2015,02,24,04,20,1.70
2015,02,24,04,21,1.70
2015,02,24,04,22,1.80
2015,02,24,04,23,1.80
2015,02,24,04,24,1.80
2015,02,24,04,25,1.90
2015,02,24,04,26,1.90
2015,02,24,04,27,1.90
2015,02,24,04,28,1.80
2015,02,24,04,29,1.80
2015,02,24,04,30,1.80
2015,02,24,04,31,1.80
2015,02,24,04,32,1.80
2015,02,24,04,33,1.80
2015,02,24,04,34,1.80
2015,02,24,04,35,1.80
2015,02,24,04,36,1.80
2015,02,24,04,37,1.70
2015,02,24,04,38,1.70
2015,02,24,04,39,1.70
2015,02,24,04,40,1.70
2015,02,24,04,41,1.70
2015,02,24,04,42,1.70
2015,02,24,04,43,1.60
2015,02,24,04,44,1.60
2015,02,24,04,45,1.60
2015,02,24,04,46,1.60
2015,02,24,04,47,1.60
2015,02,24,04,48,1.60
2015,02,24,04,49,1.50
2015,02,24,04,50,1.50
2015,02,24,04,51,1.50
2015,02,24,04,52,1.50
2015,02,24,04,53,1.50
2015,02,24,04,54,1.50
2015,02,24,04,55,1.50
2015,02,24,04,56,1.50
2015,02,24,04,57,1.50
2015,02,24,04,58,1.40
2015,02,24,04,59,1.40
2015,02,24,05,00,1.40
2015,02,24,05,01,1.40
2015,02,24,05,02,1.40
2015,02,24,05,03,1.40
2015,02,24,05,04,1.40
2015,02,24,05,05,1.40
2015,02,24,05,06,1.30
2015,02,24,05,07,1.30
2015,02,24,05,08,1.30
2015,02,24,05,09,1.30
2015,02,24,05,10,1.30
2015,02,24,05,11,1.30
2015,02,24,05,12,1.30
2015,02,24,05,13,1.20
2015,02,24,05,14,1.20
2015,02,24,05,15,1.20
2015,02,24,05,16,1.20
2015,02,24,05,17,1.20
2015,02,24,05,18,1.20
2015,02,24,05,19,1.20
2015,02,24,05,20,1.10
2015,02,24,05,21,1.20
2015,02,24,05,22,1.20
2015,02,24,05,23,1.20
2015,02,24,05,24,1.20
2015,02,24,05,25,1.20
2015,02,24,05,26,1.20
2015,02,24,05,27,1.20
2015,02,24,05,28,1.20
2015,02,24,05,29,1.20
2015,02,24,05,30,1.20
2015,02,24,05,31,1.20
2015,02,24,05,32,1.20
2015,02,24,05,33,1.20
2015,02,24,05,34,1.20
2015,02,24,05,35,1.20
2015,02,24,05,36,1.20
2015,02,24,05,37,1.20
2015,02,24,05,38,1.10
2015,02,24,05,39,1.10
2015,02,24,05,40,1.10
2015,02,24,05,41,1.10
2015,02,24,05,42,1.10
2015,02,24,05,43,1.10
2015,02,24,05,44,1.10
2015,02,24,05,45,1.10
2015,02,24,05,46,1.10
2015,02,24,05,47,1.10
2015,02,24,05,48,1.10
2015,02,24,05,49,1.00
2015,02,24,05,50,1.00
2015,02,24,05,51,1.00
2015,02,24,05,52,0.90
2015,02,24,05,53,0.90
2015,02,24,05,54,0.90
2015,02,24,05,55,0.90
2015,02,24,05,56,0.90
2015,02,24,05,57,0.90
2015,02,24,05,58,0.90
2015,02,24,05,59,0.80
2015,02,24,06,00,0.80
2015,02,24,06,01,0.80
2015,02,24,06,02,0.80
2015,02,24,06,03,0.80
2015,02,24,06,04,0.80
2015,02,24,06,05,0.80
2015,02,24,06,06,0.80
2015,02,24,06,07,0.80
2015,02,24,06,08,0.80
2015,02,24,06,09,0.80
2015,02,24,06,10,0.80
2015,02,24,06,11,0.80
2015,02,24,06,12,0.80
2015,02,24,06,13,0.90
2015,02,24,06,14,0.90
2015,02,24,06,15,1.00
2015,02,24,06,16,1.00
2015,02,24,06,17,1.10
2015,02,24,06,18,1.10
2015,02,24,06,19,1.10
2015,02,24,06,20,1.10
2015,02,24,06,21,1.00
2015,02,24,06,22,1.00
2015,02,24,06,23,1.00
2015,02,24,06,24,1.00
2015,02,24,06,25,1.00
2015,02,24,06,26,0.90
2015,02,24,06,27,0.90
2015,02,24,06,28,0.90
2015,02,24,06,29,0.90
2015,02,24,06,30,0.90
2015,02,24,06,31,0.90
2015,02,24,06,32,0.90
2015,02,24,06,33,0.90
2015,02,24,06,34,1.00
2015,02,24,06,35,1.00
2015,02,24,06,36,1.00
2015,02,24,06,37,1.10
2015,02,24,06,38,1.10
2015,02,24,06,39,1.00
2015,02,24,06,40,1.00
2015,02,24,06,41,1.00
2015,02,24,06,42,0.90
2015,02,24,06,43,0.90
2015,02,24,06,44,0.90
2015,02,24,06,45,0.90
2015,02,24,06,46,0.90
2015,02,24,06,47,0.90
2015,02,24,06,48,0.90
2015,02,24,06,49,0.90
2015,02,24,06,50,0.90
2015,02,24,06,51,0.90
2015,02,24,06,52,0.90
2015,02,24,06,53,0.90
2015,02,24,06,54,0.90
2015,02,24,06,55,0.90
2015,02,24,06,56,0.90
2015,02,24,06,57,0.90
2015,02,24,06,58,0.80
2015,02,24,06,59,0.80
2015,02,24,07,00,0.80
2015,02,24,07,01,0.80
2015,02,24,07,02,0.80
2015,02,24,07,03,0.80
2015,02,24,07,04,0.80
2015,02,24,07,05,0.80
2015,02,24,07,06,0.70
2015,02,24,07,07,0.70
2015,02,24,07,08,0.70
2015,02,24,07,09,0.80
2015,02,24,07,10,0.80
2015,02,24,07,11,0.80
2015,02,24,07,12,0.80
2015,02,24,07,13,0.80
2015,02,24,07,14,0.80
2015,02,24,07,15,0.80
2015,02,24,07,16,0.80
2015,02,24,07,17,0.80
2015,02,24,07,18,0.70
2015,02,24,07,19,0.70
2015,02,24,07,20,0.70
2015,02,24,07,21,0.70
2015,02,24,07,22,0.70
2015,02,24,07,23,0.70
2015,02,24,07,24,0.80
2015,02,24,07,25,0.80
2015,02,24,07,26,0.80
2015,02,24,07,27,0.80
2015,02,24,07,28,0.80
2015,02,24,07,29,0.80
2015,02,24,07,30,0.80
2015,02,24,07,31,0.80
2015,02,24,07,32,0.80
2015,02,24,07,33,0.70
2015,02,24,07,34,0.70
2015,02,24,07,35,0.70
2015,02,24,07,36,0.70
2015,02,24,07,37,0.70
2015,02,24,07,38,0.80
2015,02,24,07,39,0.80
2015,02,24,07,40,0.80
2015,02,24,07,41,0.80
2015,02,24,07,42,0.80
2015,02,24,07,43,0.80
2015,02,24,07,44,0.80
2015,02,24,07,45,0.80
2015,02,24,07,46,0.80
2015,02,24,07,47,0.80
2015,02,24,07,48,0.80
2015,02,24,07,49,0.90
2015,02,24,07,50,0.90
2015,02,24,07,51,0.90
2015,02,24,07,52,1.00
2015,02,24,07,53,1.00
2015,02,24,07,54,1.10
2015,02,24,07,55,1.10
2015,02,24,07,56,1.10
2015,02,24,07,57,1.20
2015,02,24,07,58,1.20
2015,02,24,07,59,1.20
2015,02,24,08,00,1.30
2015,02,24,08,01,1.30
2015,02,24,08,02,1.40
2015,02,24,08,03,1.50
2015,02,24,08,04,1.50
2015,02,24,08,05,1.60
2015,02,24,08,06,1.60
2015,02,24,08,07,1.70
2015,02,24,08,08,1.70
2015,02,24,08,09,1.80
2015,02,24,08,10,1.80
2015,02,24,08,11,1.90
2015,02,24,08,12,1.90
2015,02,24,08,13,1.90
2015,02,24,08,14,2.00
2015,02,24,08,15,2.00
2015,02,24,08,16,2.00
2015,02,24,08,17,2.10
2015,02,24,08,18,2.10
2015,02,24,08,19,2.10
2015,02,24,08,20,2.20
2015,02,24,08,21,2.20
2015,02,24,08,22,2.20
2015,02,24,08,23,2.30
2015,02,24,08,24,2.30
2015,02,24,08,25,2.40
2015,02,24,08,26,2.40
2015,02,24,08,27,2.50
2015,02,24,08,28,2.60
2015,02,24,08,29,2.70
2015,02,24,08,30,2.80
2015,02,24,08,31,2.90
2015,02,24,08,32,3.00
2015,02,24,08,33,3.10
2015,02,24,08,34,3.20
2015,02,24,08,35,3.20
2015,02,24,08,36,3.30
2015,02,24,08,37,3.40
2015,02,24,08,38,3.50
2015,02,24,08,39,3.60
2015,02,24,08,40,3.70
2015,02,24,08,41,3.70
2015,02,24,08,42,3.80
2015,02,24,08,43,3.80
2015,02,24,08,44,3.90
2015,02,24,08,45,3.90
2015,02,24,08,46,4.00
2015,02,24,08,47,4.00
2015,02,24,08,48,4.00
2015,02,24,08,49,4.10
2015,02,24,08,50,4.10
2015,02,24,08,51,4.20
2015,02,24,08,52,4.20
2015,02,24,08,53,4.20
2015,02,24,08,54,4.30
2015,02,24,08,55,4.30
2015,02,24,08,56,4.40
2015,02,24,08,57,4.40
2015,02,24,08,58,4.50
2015,02,24,08,59,4.50
2015,02,24,09,00,4.60
2015,02,24,09,01,4.70
2015,02,24,09,02,4.70
2015,02,24,09,03,4.80
2015,02,24,09,04,4.80
2015,02,24,09,05,4.90
2015,02,24,09,06,5.00
2015,02,24,09,07,5.10
2015,02,24,09,08,5.10
2015,02,24,09,09,5.10
2015,02,24,09,10,5.20
2015,02,24,09,11,5.20
2015,02,24,09,12,5.20
2015,02,24,09,13,5.20
2015,02,24,09,14,5.20
2015,02,24,09,15,5.20
2015,02,24,09,16,5.20
2015,02,24,09,17,5.30
2015,02,24,09,18,5.30
2015,02,24,09,19,5.30
2015,02,24,09,20,5.30
2015,02,24,09,21,5.30
2015,02,24,09,22,5.30
2015,02,24,09,23,5.30
2015,02,24,09,24,5.30
2015,02,24,09,25,5.30
2015,02,24,09,26,5.40
2015,02,24,09,27,5.40
2015,02,24,09,28,5.40
2015,02,24,09,29,5.40
2015,02,24,09,30,5.50
2015,02,24,09,31,5.50
2015,02,24,09,32,5.60
2015,02,24,09,33,5.60
2015,02,24,09,34,5.70
2015,02,24,09,35,5.80
2015,02,24,09,36,5.80
2015,02,24,09,37,5.90
2015,02,24,09,38,6.00
2015,02,24,09,39,6.00
2015,02,24,09,40,6.10
2015,02,24,09,41,6.20
2015,02,24,09,42,6.30
2015,02,24,09,43,6.30
2015,02,24,09,44,6.40
2015,02,24,09,45,6.50
2015,02,24,09,46,6.60
2015,02,24,09,47,6.70
2015,02,24,09,48,6.80
2015,02,24,09,49,6.80
2015,02,24,09,50,6.90
2015,02,24,09,51,7.00
2015,02,24,09,52,7.10
2015,02,24,09,53,7.20
2015,02,24,09,54,7.30
2015,02,24,09,55,7.50
2015,02,24,09,56,7.70
2015,02,24,09,57,7.80
2015,02,24,09,58,7.90
2015,02,24,09,59,8.10
2015,02,24,10,00,8.20
2015,02,24,10,01,8.30
2015,02,24,10,02,8.40
2015,02,24,10,03,8.40
2015,02,24,10,04,8.50
2015,02,24,10,05,8.60
2015,02,24,10,06,8.70
2015,02,24,10,07,8.80
2015,02,24,10,08,8.90
2015,02,24,10,09,9.00
2015,02,24,10,10,9.10
2015,02,24,10,11,9.20
2015,02,24,10,12,9.30
2015,02,24,10,13,9.30
2015,02,24,10,14,9.40
2015,02,24,10,15,9.40
2015,02,24,10,16,9.50
2015,02,24,10,17,9.60
2015,02,24,10,18,9.60
2015,02,24,10,19,9.60
2015,02,24,10,20,9.60
2015,02,24,10,21,9.70
2015,02,24,10,22,9.70
2015,02,24,10,23,9.70
2015,02,24,10,24,9.80
2015,02,24,10,25,9.90
2015,02,24,10,26,10.00
2015,02,24,10,27,10.10
2015,02,24,10,28,10.10
2015,02,24,10,29,10.10
2015,02,24,10,30,10.20
2015,02,24,10,31,10.20
2015,02,24,10,32,10.20
2015,02,24,10,33,10.20
2015,02,24,10,34,10.20
2015,02,24,10,35,10.30
2015,02,24,10,36,10.30
2015,02,24,10,37,10.30
2015,02,24,10,38,10.20
2015,02,24,10,39,10.20
2015,02,24,10,40,10.30
2015,02,24,10,41,10.30
2015,02,24,10,42,10.30
2015,02,24,10,43,10.40
2015,02,24,10,44,10.40
2015,02,24,10,45,10.40
2015,02,24,10,46,10.30
2015,02,24,10,47,10.30
2015,02,24,10,48,10.20
2015,02,24,10,49,10.20
2015,02,24,10,50,10.20
2015,02,24,10,51,10.20
2015,02,24,10,52,10.20
2015,02,24,10,53,10.20
2015,02,24,10,54,10.20
2015,02,24,10,55,10.20
2015,02,24,10,56,10.20
2015,02,24,10,57,10.20
2015,02,24,10,58,10.20
2015,02,24,10,59,10.30
2015,02,24,11,00,10.30
2015,02,24,11,01,10.30
2015,02,24,11,02,10.30
2015,02,24,11,03,10.30
2015,02,24,11,04,10.30
2015,02,24,11,05,10.40
2015,02,24,11,06,10.40
2015,02,24,11,07,10.40
2015,02,24,11,08,10.40
2015,02,24,11,09,10.40
2015,02,24,11,10,10.50
2015,02,24,11,11,10.50
2015,02,24,11,12,10.50
2015,02,24,11,13,10.60
2015,02,24,11,14,10.60
2015,02,24,11,15,10.70
2015,02,24,11,16,10.70
2015,02,24,11,17,10.80
2015,02,24,11,18,10.80
2015,02,24,11,19,10.90
2015,02,24,11,20,11.00
2015,02,24,11,21,11.00
2015,02,24,11,22,11.10
2015,02,24,11,23,11.20
2015,02,24,11,24,11.20
2015,02,24,11,25,11.30
2015,02,24,11,26,11.40
2015,02,24,11,27,11.30
2015,02,24,11,28,11.30
2015,02,24,11,29,11.30
2015,02,24,11,30,11.30
2015,02,24,11,31,11.20
2015,02,24,11,32,11.20
2015,02,24,11,33,11.20
2015,02,24,11,34,11.30
2015,02,24,11,35,11.30
2015,02,24,11,36,11.30
2015,02,24,11,37,11.30
2015,02,24,11,38,11.40
2015,02,24,11,39,11.50
2015,02,24,11,40,11.60
2015,02,24,11,41,11.60
2015,02,24,11,42,11.70
2015,02,24,11,43,11.70
2015,02,24,11,44,11.60
2015,02,24,11,45,11.60
2015,02,24,11,46,11.50
2015,02,24,11,47,11.40
2015,02,24,11,48,11.30
2015,02,24,11,49,11.30
2015,02,24,11,50,11.20
2015,02,24,11,51,11.20
2015,02,24,11,52,11.20
2015,02,24,11,53,11.20
2015,02,24,11,54,11.20
2015,02,24,11,55,11.10
2015,02,24,11,56,11.00
2015,02,24,11,57,11.00
2015,02,24,11,58,10.90
2015,02,24,11,59,10.90
2015,02,24,12,00,10.90
2015,02,24,12,01,10.90
2015,02,24,12,02,10.90
2015,02,24,12,03,10.90
2015,02,24,12,04,10.90
2015,02,24,12,05,10.80
2015,02,24,12,06,10.80
2015,02,24,12,07,10.70
2015,02,24,12,08,10.70
2015,02,24,12,09,10.70
2015,02,24,12,10,10.70
2015,02,24,12,11,10.70
2015,02,24,12,12,10.70
2015,02,24,12,13,10.70
2015,02,24,12,14,10.70
2015,02,24,12,15,10.80
2015,02,24,12,16,10.80
2015,02,24,12,17,10.70
2015,02,24,12,18,10.70
2015,02,24,12,19,10.70
2015,02,24,12,20,10.70
2015,02,24,12,21,10.70
2015,02,24,12,22,10.80
2015,02,24,12,23,10.90
2015,02,24,12,24,11.00
2015,02,24,12,25,11.00
2015,02,24,12,26,11.00
2015,02,24,12,27,11.00
2015,02,24,12,28,11.10
2015,02,24,12,29,11.10
2015,02,24,12,30,11.20
2015,02,24,12,31,11.20
2015,02,24,12,32,11.20
2015,02,24,12,33,11.20
2015,02,24,12,34,11.30
2015,02,24,12,35,11.40
2015,02,24,12,36,11.50
2015,02,24,12,37,11.50
2015,02,24,12,38,11.50
2015,02,24,12,39,11.60
2015,02,24,12,40,11.70
2015,02,24,12,41,11.70
2015,02,24,12,42,11.70
2015,02,24,12,43,11.80
2015,02,24,12,44,11.90
2015,02,24,12,45,12.00
2015,02,24,12,46,12.00
2015,02,24,12,47,12.00
2015,02,24,12,48,12.10
2015,02,24,12,49,12.20
2015,02,24,12,50,12.30
2015,02,24,12,51,12.40
2015,02,24,12,52,12.40
2015,02,24,12,53,12.40
2015,02,24,12,54,12.40
2015,02,24,12,55,12.40
2015,02,24,12,56,12.50
2015,02,24,12,57,12.50
2015,02,24,12,58,12.40
2015,02,24,12,59,12.30
2015,02,24,13,00,12.30
2015,02,24,13,01,12.20
2015,02,24,13,02,12.10
2015,02,24,13,03,12.10
2015,02,24,13,04,12.10
2015,02,24,13,05,12.10
2015,02,24,13,06,12.10
2015,02,24,13,07,12.10
2015,02,24,13,08,12.10
2015,02,24,13,09,12.10
2015,02,24,13,10,12.10
2015,02,24,13,11,12.10
2015,02,24,13,12,12.10
2015,02,24,13,13,12.20
2015,02,24,13,14,12.30
2015,02,24,13,15,12.30
2015,02,24,13,16,12.30
2015,02,24,13,17,12.40
2015,02,24,13,18,12.40
2015,02,24,13,19,12.40
2015,02,24,13,20,12.40
2015,02,24,13,21,12.30
2015,02,24,13,22,12.30
2015,02,24,13,23,12.30
2015,02,24,13,24,12.30
2015,02,24,13,25,12.30
2015,02,24,13,26,12.40
2015,02,24,13,27,12.50
2015,02,24,13,28,12.60
2015,02,24,13,29,12.60
2015,02,24,13,30,12.70
2015,02,24,13,31,12.70
2015,02,24,13,32,12.70
2015,02,24,13,33,12.80
2015,02,24,13,34,12.80
2015,02,24,13,35,12.80
2015,02,24,13,36,12.80
2015,02,24,13,37,12.80
2015,02,24,13,38,12.80
2015,02,24,13,39,12.80
2015,02,24,13,40,12.80
2015,02,24,13,41,12.90
2015,02,24,13,42,12.90
2015,02,24,13,43,12.90
2015,02,24,13,44,12.90
2015,02,24,13,45,12.90
2015,02,24,13,46,13.00
2015,02,24,13,47,13.00
2015,02,24,13,48,13.00
2015,02,24,13,49,13.00
2015,02,24,13,50,13.10
2015,02,24,13,51,13.10
2015,02,24,13,52,13.00
2015,02,24,13,53,12.80
2015,02,24,13,54,12.80
2015,02,24,13,55,12.80
2015,02,24,13,56,12.80
2015,02,24,13,57,12.80
2015,02,24,13,58,12.80
2015,02,24,13,59,12.80
2015,02,24,14,00,12.70
2015,02,24,14,01,12.60
2015,02,24,14,02,12.60
2015,02,24,14,03,12.60
2015,02,24,14,04,12.50
2015,02,24,14,05,12.50
2015,02,24,14,06,12.30
2015,02,24,14,07,12.30
2015,02,24,14,08,12.30
2015,02,24,14,09,12.20
2015,02,24,14,10,12.20
2015,02,24,14,11,12.20
2015,02,24,14,12,12.20
2015,02,24,14,13,12.20
2015,02,24,14,14,12.20
2015,02,24,14,15,12.10
2015,02,24,14,16,12.10
2015,02,24,14,17,12.10
2015,02,24,14,18,12.10
2015,02,24,14,19,12.10
2015,02,24,14,20,12.10
2015,02,24,14,21,12.20
2015,02,24,14,22,12.20
2015,02,24,14,23,12.20
2015,02,24,14,24,12.20
2015,02,24,14,25,12.20
2015,02,24,14,26,12.30
2015,02,24,14,27,12.30
2015,02,24,14,28,12.40
2015,02,24,14,29,12.50
2015,02,24,14,30,12.50
2015,02,24,14,31,12.60
2015,02,24,14,32,12.60
2015,02,24,14,33,12.60
2015,02,24,14,34,12.70
2015,02,24,14,35,12.70
2015,02,24,14,36,12.70
2015,02,24,14,37,12.60
2015,02,24,14,38,12.50
2015,02,24,14,39,12.50
2015,02,24,14,40,12.40
2015,02,24,14,41,12.30
2015,02,24,14,42,12.20
2015,02,24,14,43,12.20
2015,02,24,14,44,12.20
2015,02,24,14,45,12.20
2015,02,24,14,46,12.10
2015,02,24,14,47,12.10
2015,02,24,14,48,12.10
2015,02,24,14,49,12.10
2015,02,24,14,50,12.20
2015,02,24,14,51,12.20
2015,02,24,14,52,12.20
2015,02,24,14,53,12.20
2015,02,24,14,54,12.20
2015,02,24,14,55,12.10
2015,02,24,14,56,12.00
2015,02,24,14,57,11.90
2015,02,24,14,58,11.90
2015,02,24,14,59,11.80
2015,02,24,15,00,11.70
2015,02,24,15,01,11.60
2015,02,24,15,02,11.50
2015,02,24,15,03,11.30
2015,02,24,15,04,11.20
2015,02,24,15,05,11.20
2015,02,24,15,06,11.10
2015,02,24,15,07,11.10
2015,02,24,15,08,11.00
2015,02,24,15,09,10.90
2015,02,24,15,10,10.90
2015,02,24,15,11,10.90
2015,02,24,15,12,10.80
2015,02,24,15,13,10.80
2015,02,24,15,14,10.80
2015,02,24,15,15,10.80
2015,02,24,15,16,10.80
2015,02,24,15,17,10.80
2015,02,24,15,18,10.80
2015,02,24,15,19,10.80
2015,02,24,15,20,10.80
2015,02,24,15,21,10.80
2015,02,24,15,22,10.90
2015,02,24,15,23,10.80
2015,02,24,15,24,10.80
2015,02,24,15,25,10.80
2015,02,24,15,26,10.70
2015,02,24,15,27,10.70
2015,02,24,15,28,10.70
2015,02,24,15,29,10.70
2015,02,24,15,30,10.80
2015,02,24,15,31,10.90
2015,02,24,15,32,10.90
2015,02,24,15,33,11.00
2015,02,24,15,34,11.00
2015,02,24,15,35,11.10
2015,02,24,15,36,11.10
2015,02,24,15,37,11.10
2015,02,24,15,38,11.20
2015,02,24,15,39,11.20
2015,02,24,15,40,11.20
2015,02,24,15,41,11.20
2015,02,24,15,42,11.30
2015,02,24,15,43,11.20
2015,02,24,15,44,11.20
2015,02,24,15,45,11.10
2015,02,24,15,46,11.10
2015,02,24,15,47,11.10
2015,02,24,15,48,11.10
2015,02,24,15,49,11.10
2015,02,24,15,50,11.10
2015,02,24,15,51,11.10
2015,02,24,15,52,11.10
2015,02,24,15,53,11.10
2015,02,24,15,54,11.20
2015,02,24,15,55,11.10
2015,02,24,15,56,11.20
2015,02,24,15,57,11.20
2015,02,24,15,58,11.20
2015,02,24,15,59,11.20
2015,02,24,16,00,11.30
2015,02,24,16,01,11.30
2015,02,24,16,02,11.30
2015,02,24,16,03,11.30
2015,02,24,16,04,11.30
2015,02,24,16,05,11.30
2015,02,24,16,06,11.30
2015,02,24,16,07,11.30
2015,02,24,16,08,11.30
2015,02,24,16,09,11.30
2015,02,24,16,10,11.20
2015,02,24,16,11,11.20
2015,02,24,16,12,11.20
2015,02,24,16,13,11.10
2015,02,24,16,14,11.10
2015,02,24,16,15,11.10
2015,02,24,16,16,11.10
2015,02,24,16,17,11.10
2015,02,24,16,18,11.10
2015,02,24,16,19,11.10
2015,02,24,16,20,11.10
2015,02,24,16,21,11.10
2015,02,24,16,22,11.10
2015,02,24,16,23,11.10
2015,02,24,16,24,11.10
2015,02,24,16,25,11.10
2015,02,24,16,26,11.10
2015,02,24,16,27,11.00
2015,02,24,16,28,11.00
2015,02,24,16,29,11.00
2015,02,24,16,30,11.00
2015,02,24,16,31,11.10
2015,02,24,16,32,11.10
2015,02,24,16,33,11.10
2015,02,24,16,34,11.20
2015,02,24,16,35,11.20
2015,02,24,16,36,11.20
2015,02,24,16,37,11.20
2015,02,24,16,38,11.30
2015,02,24,16,39,11.30
2015,02,24,16,40,11.20
2015,02,24,16,41,11.20
2015,02,24,16,42,11.20
2015,02,24,16,43,11.20
2015,02,24,16,44,11.20
2015,02,24,16,45,11.10
2015,02,24,16,46,11.10
2015,02,24,16,47,11.00
2015,02,24,16,48,11.00
2015,02,24,16,49,11.00
2015,02,24,16,50,11.00
2015,02,24,16,51,11.10
2015,02,24,16,52,11.00
2015,02,24,16,53,11.00
2015,02,24,16,54,11.00
2015,02,24,16,55,11.00
2015,02,24,16,56,10.90
2015,02,24,16,57,10.90
2015,02,24,16,58,10.90
2015,02,24,16,59,10.80
2015,02,24,17,00,10.80
2015,02,24,17,01,10.80
2015,02,24,17,02,10.70
2015,02,24,17,03,10.70
2015,02,24,17,04,10.80
2015,02,24,17,05,10.80
2015,02,24,17,06,10.80
2015,02,24,17,07,10.80
2015,02,24,17,08,10.70
2015,02,24,17,09,10.70
2015,02,24,17,10,10.60
2015,02,24,17,11,10.60
2015,02,24,17,12,10.60
2015,02,24,17,13,10.50
2015,02,24,17,14,10.50
2015,02,24,17,15,10.40
2015,02,24,17,16,10.50
2015,02,24,17,17,10.40
2015,02,24,17,18,10.40
2015,02,24,17,19,10.50
2015,02,24,17,20,10.50
2015,02,24,17,21,10.50
2015,02,24,17,22,10.50
2015,02,24,17,23,10.60
2015,02,24,17,24,10.60
2015,02,24,17,25,10.60
2015,02,24,17,26,10.70
2015,02,24,17,27,10.70
2015,02,24,17,28,10.70
2015,02,24,17,29,10.70
2015,02,24,17,30,10.70
2015,02,24,17,31,10.80
2015,02,24,17,32,10.80
2015,02,24,17,33,10.70
2015,02,24,17,34,10.70
2015,02,24,17,35,10.70
2015,02,24,17,36,10.70
2015,02,24,17,37,10.60
2015,02,24,17,38,10.60
2015,02,24,17,39,10.60
2015,02,24,17,40,10.60
2015,02,24,17,41,10.60
2015,02,24,17,42,10.60
2015,02,24,17,43,10.50
2015,02,24,17,44,10.50
2015,02,24,17,45,10.40
2015,02,24,17,46,10.40